Location: Grand Rapids
(42.9630°N, 85.6680°W)
Time: 11:03:09
(UTC-04:00)

A-11 Canister half - Pass Details

Date: 01 June 2024
Orbit: 1524 x 1683 km, 47.3° (Epoch: 24 April)

Event Time Altitude Azimuth Distance (km) Brightness Sun altitude
Rises 20:56:44 0° 247° (WSW) 4,666 12.2 2.1°
Reaches altitude 10° 20:59:45 10° 248° (WSW) 3,687 11.6 1.7°
Maximum altitude 21:09:05 86° 338° (NNW) 1,547 9.2 0.2°
Drops below altitude 10° 21:18:38 10° 69° (ENE) 3,771 10.7 -1.3°
Sets 21:21:46 0° 70° (ENE) 4,777 11.2 -1.8°
